{"data":{"norad_id":68967,"intl_designator":"2026-099S","name":"STARLINK-36671","alt_names":[],"object_type":"PAYLOAD","status":"ACTIVE","operator":null,"country":"US","launch_date":"2026-05-01","launch_site_code":"AFETR","launch_vehicle":null,"mission":null,"orbit_class":"UNKNOWN","rcs_meters":null,"size_class":null,"mass_kg":null,"dimensions":null,"purposes":["comms"],"wikipedia_slug":null,"has_3d_model":false,"image_url":null,"decayed_at":null,"tle_current":{"epoch":"2026-09-19T20:01:26.416128Z","epoch_age_seconds":76877,"freshness":"FRESH","line1":"1 68967U 26099S   26262.83433352  .00026148  00000+0  78215-3 0  9997","line2":"2 68967  53.1589  78.7851 0001010  71.0245 289.0867 15.34406367 21806","mean_motion":15.34406367,"eccentricity":0.000101,"inclination_deg":53.1589,"raan_deg":78.7851,"arg_perigee_deg":71.0245,"mean_anomaly_deg":289.0867,"bstar":0.00078215,"rev_number":2180,"period_min":93.847368661238,"perigee_km":461.99339325382,"apogee_km":463.37523915969,"semimajor_km":6840.8213162068,"source":"CELESTRAK","updated_at":"2026-09-20T09:00:44.054891Z"}}}